Regional Weather Roundup
Issued by NWS

Home | Current Version | Previous Version | Text Only | Print | Product List | Glossary On
Versions: 1 2 3 4 5 6 7 8 9 10 11 12 13 14 15 16 17 18 19 20 21 22 23 24 25 26 27 28 29 30 31 32 33 34 35 36 37 38 39 40 41 42 43 44 45 46 47 48 49 50
000
ASUS43 KOAX 170110
RWRNE

WEATHER ROUNDUP FOR NEBRASKA
NATIONAL WEATHER SERVICE OMAHA NE
800 PM CDT TUE SEP 16 2014

NOTES: SATELLITE DATA IS BEING USED TO AUGMENT CLOUD COVER ABOVE
       12000 FEET.
       "FAIR" INDICATES FEW OR NO CLOUDS BELOW 12,000 FEET WITH NO
       SIGNIFICANT WEATHER AND/OR OBSTRUCTIONS TO VISIBILITY.

  * THESE STATIONS DO NOT REPORT WEATHER SUCH AS RAIN...SNOW OR FOG.

NEZ001>004-019>022-054>056-170200-
NEBRASKA PANHANDLE

CITY           SKY/WX    TMP DP  RH WIND       PRES   REMARKS
SCOTTSBLUFF    CLEAR     77  45  32 SE6       29.98S
ALLIANCE       CLEAR     66  46  48 SE9       29.98S
CHADRON        CLEAR     72  52  49 SE6       29.92F
KIMBALL        CLEAR     72  39  30 E3        30.05S
SIDNEY         CLEAR     71  45  39 E8        30.04S
$$

NEZ057>060-069>072-079>082-170200-
SOUTHWEST NEBRASKA

CITY           SKY/WX    TMP DP  RH WIND       PRES   REMARKS
NORTH PLATTE   CLEAR     63  59  87 E7        29.96S
IMPERIAL       CLEAR     73  54  51 NW7       29.98S
LEXINGTON      PTCLDY    65  59  80 SE7       29.97F
MCCOOK         CLEAR     71  60  68 E9        29.96R
OGALLALA       CLEAR     72  61  67 CALM      29.98S
$$

NEZ005>010-023>029-035>040-094-170200-
NORTH CENTRAL NEBRASKA

CITY           SKY/WX    TMP DP  RH WIND       PRES   REMARKS
VALENTINE      PTCLDY    71  55  56 NE3       29.93F
AINSWORTH      PTCLDY    65  57  76 SE5       29.95R
BROKEN BOW     CLEAR     63  57  81 S7        29.98S
O`NEILL        CLEAR     63  57  81 S6        29.97S
ORD            PTCLDY    62  55  77 SE7       29.97F
THEDFORD       CLEAR     72  60  67 S9        29.97R
$$

NEZ041-046>049-061>064-073>077-083>087-170200-
SOUTH CENTRAL NEBRASKA

CITY           SKY/WX    TMP DP  RH WIND       PRES   REMARKS
GRAND ISLAND   CLOUDY    64  54  69 SE7       30.01F
AURORA         CLOUDY    64  51  63 SE5       30.01F
HASTINGS       PTCLDY    62  52  69 SE7       30.01S
HEBRON         CLOUDY    65  53  65 CALM      30.02R
HOLDREGE       PTCLDY    61  56  84 CALM      29.98F
KEARNEY *      PTCLDY    61  54  77 SE7       30.00F
YORK           CLOUDY    63  55  77 SW3       30.02S
$$

NEZ011>018-030>034-042>045-170200-
NORTHEAST NEBRASKA

CITY           SKY/WX    TMP DP  RH WIND       PRES   REMARKS
NORFOLK        CLOUDY    65  51  60 SE8       30.00R
ALBION         CLOUDY    63  54  73 S5        29.99F
BLAIR          MOCLDY    61  52  71 SE6       30.02F
COLUMBUS *     CLOUDY    64  52  63 SE5       30.02S
FREMONT        CLOUDY    65  50  57 SE7       30.01F
TEKAMAH        MOCLDY    61  52  72 SE7       30.01F
WAYNE          CLOUDY    62  51  68 SE7       30.00F
$$

NEZ050>053-065>068-078-088>093-170200-
SOUTHEAST NEBRASKA

CITY           SKY/WX    TMP DP  RH WIND       PRES   REMARKS
LINCOLN        CLOUDY    66  52  60 S7        30.02S
OMAHA EPPLEY   MOCLDY    65  50  58 SE9       30.02F
BEATRICE       CLOUDY    67  51  57 S5        30.02R
FALLS CITY     CLOUDY    64  54  69 SE3       30.02S
NEBRASKA CITY  CLOUDY    64  45  50 SE5       30.03S
PLATTSMOUTH    CLOUDY    63  49  59 SE3       30.03S
$$

NEZ044-045-051>053-067-170200-
OMAHA AREA

CITY           SKY/WX    TMP DP  RH WIND       PRES   REMARKS
OMAHA EPPLEY   MOCLDY    65  50  58 SE9       30.02F
BLAIR          MOCLDY    61  52  71 SE6       30.02F
FREMONT        CLOUDY    65  50  57 SE7       30.01F
MILLARD        CLOUDY    64  52  63 SE5       30.02S
OFFUTT AFB     CLOUDY    63  55  75 SE6       30.02S
PLATTSMOUTH    CLOUDY    63  49  59 SE3       30.03S
WAHOO          CLOUDY    64  51  64 SE5       30.01S
$$


USA.gov is the U.S. government's official web portal to all federal, state and local government web resources and services.